Location: Astronomy Club of Akron Observatory
(40.9700°N, 81.5606°W)
Time: 19:05:58
(UTC-04:00)

Cosmos 1441 Rocket - Visible Passes

Search period start: 25 June 2016 00:00
Search period end: 05 July 2016 00:00
Orbit: 499 x 546 km, 81.1° (Epoch: 25 June)

Date Brightness Start Highest point End Pass type
(mag) Time Alt. Az. Time Alt. Az. Time Alt. Az.
25 Jun 3.6 21:31:32 10° SSE 21:35:07 42° E 21:38:41 10° NNE visible
25 Jun 6.2 23:09:47 10° W 23:11:22 12° WNW 23:12:56 10° NW visible
26 Jun 6.2 22:56:28 10° W 22:58:26 14° WNW 23:00:23 10° NW visible
27 Jun 6.1 22:43:14 10° WSW 22:45:30 15° WNW 22:47:45 10° NNW visible
28 Jun 6.1 22:30:03 10° WSW 22:32:34 17° WNW 22:35:05 10° NNW visible
29 Jun 6.0 22:16:56 10° WSW 22:19:39 19° WNW 22:22:22 10° NNW visible
30 Jun 5.9 22:03:49 10° WSW 22:06:43 21° WNW 22:09:38 10° NNW visible
01 Jul 5.8 21:50:45 10° SW 21:53:48 23° WNW 21:56:52 10° NNW visible
02 Jul 5.6 21:37:41 10° SW 21:40:53 26° WNW 21:44:05 10° NNW visible
